Volver al catálogo

STARLINK-4718

ActivoComunicacionesVLEO
NORAD 53773·PAYLOAD·🇺🇸 United States

Lanzado Sep 11, 2022 desde Cape Canaveral Space Force Station

Loading…

Próximos Pases (próximas 24 horas)

TLE

ActualizadoSource: CelesTrak SupGP

Época: Sep 14, 2026, 22:26 UTC

1 53773C 22111A   26257.93520833 -.00017882  00000+0 -57519-3 0  2571
2 53773  53.1591 144.3973 0001386  87.5815 199.8211 15.31702109    15

Sigue STARLINK-4718 en tiempo real con AllMySat

Download on the App Store